When you browse on this site, cookies collect data to enhance your experience and personalize the content and advertising you see.
Visit our Privacy Policy to learn more. By continuing to use the site, you agree to this use of cookies and data.
  • In Latvia
  • List of Countries
  • For 7 days
  • Water Temperature
  • Weather Map
  • Weather Widgets
  • user-avatar
    Login

    Hourly Weather Darna

    Today, 26 August, Monday

    Time Temperature Precipitation Wind Pressure Humidity
    00:00 +27°C° 0 mm 7 mps 754 mmHg 66%
    01:00 +27°C° 0 mm 7 mps 754 mmHg 67%
    02:00 +26°C° 0 mm 7 mps 754 mmHg 69%
    03:00 +26°C° 0 mm 7 mps 754 mmHg 75%
    04:00 +26°C° 0 mm 7 mps 754 mmHg 80%
    05:00 +24°C° 0 mm 7 mps 754 mmHg 86%
    06:00 +27°C° 0 mm 7 mps 754 mmHg 76%
    07:00 +28°C° 0 mm 6 mps 754 mmHg 66%
    08:00 +29°C° 0 mm 6 mps 754 mmHg 56%
    09:00 +32°C° 0 mm 6 mps 755 mmHg 49%
    10:00 +34°C° 0 mm 6 mps 755 mmHg 43%
    11:00 +35°C° 0 mm 6 mps 755 mmHg 36%
    12:00 +36°C° 0 mm 7 mps 755 mmHg 36%
    13:00 +36°C° 0 mm 7 mps 755 mmHg 36%
    14:00 +36°C° 0 mm 7 mps 754 mmHg 35%
    15:00 +35°C° 0 mm 7 mps 754 mmHg 38%
    16:00 +34°C° 0 mm 7 mps 754 mmHg 42%
    17:00 +33°C° 0 mm 8 mps 754 mmHg 45%
    18:00 +32°C° 0 mm 7 mps 754 mmHg 53%
    19:00 +29°C° 0 mm 7 mps 754 mmHg 61%
    20:00 +28°C° 0 mm 7 mps 754 mmHg 68%
    21:00 +28°C° 0 mm 7 mps 754 mmHg 67%
    22:00 +28°C° 0 mm 7 mps 755 mmHg 65%
    23:00 +27°C° 0 mm 7 mps 755 mmHg 63%

    Tomorrow, 27 August, Tuesday

    Time Temperature Precipitation Wind Pressure Humidity
    00:00 +27°C° 0 mm 6 mps 755 mmHg 64%
    01:00 +27°C° 0 mm 6 mps 755 mmHg 66%
    02:00 +27°C° 0 mm 6 mps 754 mmHg 67%
    03:00 +27°C° 0 mm 6 mps 754 mmHg 66%
    04:00 +27°C° 0 mm 6 mps 754 mmHg 64%
    05:00 +27°C° 0 mm 5 mps 754 mmHg 62%
    06:00 +28°C° 0 mm 6 mps 754 mmHg 57%
    07:00 +29°C° 0 mm 6 mps 755 mmHg 51%
    08:00 +32°C° 0 mm 7 mps 755 mmHg 45%
    09:00 +33°C° 0 mm 7 mps 755 mmHg 43%
    10:00 +34°C° 0 mm 7 mps 755 mmHg 41%
    11:00 +35°C° 0 mm 7 mps 755 mmHg 39%
    12:00 +37°C° 0 mm 8 mps 755 mmHg 38%
    13:00 +37°C° 0 mm 8 mps 755 mmHg 37%
    14:00 +38°C° 0 mm 8 mps 755 mmHg 36%
    15:00 +35°C° 0 mm 9 mps 755 mmHg 41%
    16:00 +34°C° 0 mm 9 mps 754 mmHg 46%
    17:00 +32°C° 0 mm 10 mps 754 mmHg 52%
    18:00 +31°C° 0 mm 9 mps 754 mmHg 60%
    19:00 +28°C° 0 mm 9 mps 754 mmHg 68%
    20:00 +26°C° 0 mm 9 mps 755 mmHg 77%
    21:00 +26°C° 0 mm 8 mps 755 mmHg 78%
    22:00 +26°C° 0 mm 8 mps 755 mmHg 79%
    23:00 +26°C° 0 mm 8 mps 756 mmHg 80%

    Day after tomorrow, 28 August, Wednesday

    Time Temperature Precipitation Wind Pressure Humidity
    00:00 +26°C° 0 mm 7 mps 755 mmHg 82%
    01:00 +26°C° 0 mm 7 mps 755 mmHg 84%
    02:00 +26°C° 0 mm 6 mps 755 mmHg 86%
    03:00 +26°C° 0 mm 6 mps 755 mmHg 82%
    04:00 +24°C° 0 mm 6 mps 755 mmHg 78%
    05:00 +24°C° 0 mm 6 mps 754 mmHg 74%
    06:00 +27°C° 0 mm 6 mps 755 mmHg 68%
    07:00 +28°C° 0 mm 7 mps 755 mmHg 61%
    08:00 +29°C° 0 mm 7 mps 755 mmHg 55%
    09:00 +32°C° 0 mm 7 mps 755 mmHg 49%
    10:00 +33°C° 0 mm 7 mps 755 mmHg 44%
    11:00 +34°C° 0 mm 7 mps 755 mmHg 39%
    12:00 +35°C° 0 mm 8 mps 755 mmHg 38%
    13:00 +35°C° 0 mm 8 mps 755 mmHg 38%
    14:00 +35°C° 0 mm 8 mps 755 mmHg 37%
    15:00 +34°C° 0 mm 8 mps 755 mmHg 41%
    16:00 +32°C° 0 mm 8 mps 755 mmHg 46%
    17:00 +31°C° 0 mm 8 mps 754 mmHg 50%
    18:00 +29°C° 0 mm 8 mps 755 mmHg 56%
    19:00 +28°C° 0 mm 7 mps 755 mmHg 63%
    20:00 +26°C° 0 mm 7 mps 755 mmHg 69%
    21:00 +26°C° 0 mm 6 mps 755 mmHg 69%
    22:00 +26°C° 0 mm 6 mps 755 mmHg 68%
    23:00 +25°C° 0 mm 5 mps 755 mmHg 68%

    29 August, Thursday

    Time Temperature Precipitation Wind Pressure Humidity
    00:00 +25°C° 0 mm 5 mps 755 mmHg 65%
    01:00 +24°C° 0 mm 6 mps 755 mmHg 62%
    02:00 +24°C° 0 mm 6 mps 755 mmHg 59%
    03:00 +24°C° 0 mm 6 mps 754 mmHg 60%
    04:00 +24°C° 0 mm 6 mps 754 mmHg 62%
    05:00 +23°C° 0 mm 6 mps 754 mmHg 63%
    06:00 +26°C° 0 mm 6 mps 754 mmHg 61%
    07:00 +27°C° 0 mm 7 mps 754 mmHg 58%
    08:00 +29°C° 0 mm 7 mps 754 mmHg 55%
    09:00 +30°C° 0 mm 7 mps 755 mmHg 50%
    10:00 +33°C° 0 mm 8 mps 755 mmHg 44%
    11:00 +34°C° 0 mm 8 mps 755 mmHg 39%
    12:00 +34°C° 0 mm 8 mps 755 mmHg 38%
    13:00 +34°C° 0 mm 8 mps 755 mmHg 37%
    14:00 +35°C° 0 mm 8 mps 755 mmHg 36%
    15:00 +33°C° 0 mm 8 mps 754 mmHg 42%
    16:00 +32°C° 0 mm 8 mps 754 mmHg 47%
    17:00 +31°C° 0 mm 9 mps 754 mmHg 53%
    18:00 +29°C° 0 mm 8 mps 754 mmHg 58%
    19:00 +27°C° 0 mm 8 mps 754 mmHg 63%
    20:00 +26°C° 0 mm 8 mps 754 mmHg 68%
    21:00 +26°C° 0 mm 7 mps 755 mmHg 67%
    22:00 +24°C° 0 mm 7 mps 755 mmHg 66%
    23:00 +24°C° 0 mm 6 mps 755 mmHg 65%

    30 August, Friday

    Time Temperature Precipitation Wind Pressure Humidity
    00:00 +24°C° 0 mm 6 mps 754 mmHg 68%
    01:00 +24°C° 0 mm 6 mps 754 mmHg 71%
    02:00 +23°C° 0 mm 6 mps 754 mmHg 74%
    03:00 +23°C° 0 mm 7 mps 754 mmHg 74%
    04:00 +23°C° 0 mm 7 mps 754 mmHg 74%
    05:00 +23°C° 0 mm 7 mps 753 mmHg 74%
    06:00 +24°C° 0 mm 8 mps 754 mmHg 70%
    07:00 +27°C° 0 mm 8 mps 754 mmHg 66%
    08:00 +28°C° 0 mm 9 mps 754 mmHg 62%
    09:00 +29°C° 0 mm 9 mps 754 mmHg 56%
    10:00 +32°C° 0 mm 9 mps 755 mmHg 50%
    11:00 +33°C° 0 mm 8 mps 755 mmHg 44%
    12:00 +33°C° 0 mm 8 mps 755 mmHg 40%
    13:00 +34°C° 0 mm 9 mps 754 mmHg 36%
    14:00 +34°C° 0 mm 9 mps 754 mmHg 32%
    15:00 +33°C° 0 mm 9 mps 754 mmHg 38%
    16:00 +31°C° 0 mm 10 mps 754 mmHg 45%
    17:00 +29°C° 0 mm 10 mps 754 mmHg 52%
    18:00 +28°C° 0 mm 10 mps 754 mmHg 59%
    19:00 +27°C° 0 mm 9 mps 754 mmHg 66%
    20:00 +24°C° 0 mm 9 mps 754 mmHg 72%
    21:00 +24°C° 0 mm 9 mps 754 mmHg 74%
    22:00 +24°C° 0 mm 9 mps 754 mmHg 75%
    23:00 +26°C° 0 mm 10 mps 755 mmHg 76%

    31 August, Saturday

    Time Temperature Precipitation Wind Pressure Humidity
    00:00 +24°C° 0 mm 9 mps 754 mmHg 76%
    01:00 +24°C° 0 mm 8 mps 754 mmHg 76%
    02:00 +24°C° 0 mm 8 mps 754 mmHg 76%
    03:00 +24°C° 0 mm 8 mps 754 mmHg 78%
    04:00 +24°C° 0 mm 8 mps 754 mmHg 81%
    05:00 +24°C° 0 mm 9 mps 753 mmHg 83%
    06:00 +26°C° 0 mm 9 mps 754 mmHg 76%
    07:00 +27°C° 0 mm 9 mps 754 mmHg 69%
    08:00 +28°C° 0 mm 10 mps 754 mmHg 62%
    09:00 +28°C° 0 mm 10 mps 754 mmHg 58%
    10:00 +29°C° 0 mm 10 mps 754 mmHg 53%
    11:00 +31°C° 0 mm 11 mps 755 mmHg 49%
    12:00 +31°C° 0 mm 11 mps 754 mmHg 48%
    13:00 +31°C° 0 mm 11 mps 754 mmHg 48%
    14:00 +31°C° 0 mm 11 mps 754 mmHg 48%
    15:00 +29°C° 0 mm 11 mps 754 mmHg 51%
    16:00 +28°C° 0 mm 11 mps 754 mmHg 54%
    17:00 +27°C° 0 mm 11 mps 754 mmHg 57%
    18:00 +27°C° 0 mm 11 mps 754 mmHg 59%
    19:00 +26°C° 0 mm 11 mps 754 mmHg 62%
    20:00 +24°C° 0 mm 11 mps 754 mmHg 65%
    21:00 +24°C° 0 mm 10 mps 755 mmHg 66%
    22:00 +24°C° 0 mm 9 mps 755 mmHg 66%
    23:00 +24°C° 0 mm 9 mps 755 mmHg 67%
    Show more